This is the latest recevied weather packets stored in our database for station/object KB1YYC. If no packets are shown the sender has not sent any weather packets the latest 10 day(s).
| Time | Temp. | Humidity | Pressure | Rain* | Wind** | Luminosity | Snow |
|---|---|---|---|---|---|---|---|
| 1777935140 | 20.56° C | 35% | 1005.6 hPa | 0 mm | - | 35 W/m² | - |
| 1777934837 | 20.56° C | 35% | 1005.4 hPa | 0 mm | - | 47 W/m² | - |
| 1777934535 | 20.56° C | 35% | 1005.5 hPa | 0 mm | - | 44 W/m² | - |
| 1777934231 | 20.56° C | 35% | 1005.6 hPa | 0 mm | - | 35 W/m² | - |
| 1777933926 | 20.56° C | 36% | 1005.5 hPa | 0 mm | - | 45 W/m² | - |
| 1777933623 | 20.56° C | 34% | 1005.6 hPa | 0 mm | - | 49 W/m² | - |
| 1777933320 | 20.56° C | 35% | 1005.5 hPa | 0 mm | - | 55 W/m² | - |
| 1777933018 | 20.56° C | 34% | 1005.5 hPa | 0 mm | - | 52 W/m² | - |
| 1777932715 | 20.56° C | 33% | 1005.5 hPa | 0 mm | - | 54 W/m² | - |
| 1777932411 | 21.11° C | 33% | 1005.5 hPa | 0 mm | - | 54 W/m² | - |
| 1777932109 | 21.11° C | 33% | 1005.4 hPa | 0 mm | - | 46 W/m² | - |
| 1777931805 | 21.11° C | 33% | 1005.6 hPa | 0 mm | - | 46 W/m² | - |
| 1777931502 | 20.56° C | 33% | 1005.5 hPa | 0 mm | - | 49 W/m² | - |
| 1777931198 | 21.11° C | 33% | 1005.4 hPa | 0 mm | - | 42 W/m² | - |
| 1777930894 | 21.11° C | 33% | 1005.5 hPa | 0 mm | - | 45 W/m² | - |
| 1777930591 | 20.56° C | 33% | 1005.5 hPa | 0 mm | - | 47 W/m² | - |
| 1777930288 | 20.56° C | 32% | 1005.4 hPa | 0 mm | - | 51 W/m² | - |
| 1777929984 | 21.11° C | 32% | 1005.4 hPa | 0 mm | - | 51 W/m² | - |
| 1777929681 | 21.11° C | 33% | 1005.6 hPa | 0 mm | - | 56 W/m² | - |
| 1777929379 | 21.67° C | 32% | 1005.3 hPa | 0 mm | - | 51 W/m² | - |
| 1777929075 | 21.67° C | 32% | 1005.4 hPa | 0 mm | - | 57 W/m² | - |
| 1777928773 | 21.67° C | 33% | 1005.2 hPa | 0 mm | - | 53 W/m² | - |
| 1777928469 | 21.11° C | 31% | 1005.1 hPa | 0 mm | - | 65 W/m² | - |
| 1777928167 | 21.11° C | 32% | 1005.3 hPa | 0 mm | - | 60 W/m² | - |
| 1777927864 | 21.11° C | 33% | 1005.3 hPa | 0 mm | - | 77 W/m² | - |
* Rain latest hour (hover to see other rain measurements)
** Current wind speed in m/s (hover to see current wind gust speed)